Regional Weather Roundup
Issued by NWS

Home | Current Version | Previous Version | Graphics & Text | Print | Product List | Glossary On
Versions: 1 2 3 4 5 6 7 8 9 10 11 12 13 14 15 16 17 18 19 20 21 22 23 24 25 26 27 28 29 30 31 32 33 34 35 36 37 38 39 40 41 42 43 44 45 46 47 48 49 50
000
ASUS45 KABQ 050001
RWRNM
NEW MEXICO REGIONAL WEATHER ROUNDUP
NATIONAL WEATHER SERVICE ALBUQUERQUE NM
600 PM MDT FRI SEP 04 2015

NOTE: "FAIR" MEANS FEW OR NO CLOUDS BELOW 12,000 FEET AGL WITH NO
       SIGNIFICANT WEATHER OR OBSTRUCTIONS TO VISION.

      THIS PRODUCT IS RELEASED AS TWO VERSIONS.  ONE VERSION NEAR
      THE TOP OF THE HOUR CONTAINING PRELIMINARY DATA FROM ALBUQUERQUE
      AND OTHER STATIONS.  A FINAL VERSION WITH ADDITIONAL DATA IS
      ISSUED ABOUT 10 MINUTES AFTER THE HOUR.

NMZ501-503-504-510>518-050100-
NORTHWEST PLATEAU/NORTHCENTRAL MOUNTAINS

CITY           SKY/WX    TMP DP  RH WIND       PRES   REMARKS
FARMINGTON     CLOUDY    71  53  52 SE13      30.06R
6HR MIN TEMP:  70; 6HR MAX TEMP:  81; 6HR PCP: TRACE;

SANTA FE       LGT RAIN  63  56  78 NE3       30.19F
6HR MIN TEMP:  62; 6HR MAX TEMP:  77; 6HR PCP:  0.04;

TAOS           CLOUDY    57  46  67 SW10      30.27S
ANGEL FIRE     DRIZZLE   54  51  90 CALM      30.33S

$$
NMZ402-403-502-505>509-050100-
WESTCENTRAL MOUNTAINS/SOUTHWEST MOUNTAINS

CITY           SKY/WX    TMP DP  RH WIND       PRES   REMARKS
GALLUP         LGT RAIN  63  56  78 W7        30.13S
6HR MIN TEMP:  61; 6HR MAX TEMP:  76; 6HR PCP:  0.17;

SILVER CITY    LGT RAIN  64  59  82 N7        30.17R

$$
NMZ407-409-411-412-050100-
SOUTHERN DESERTS

CITY           SKY/WX    TMP DP  RH WIND       PRES   REMARKS
DEMING         PTSUNNY   78  55  44 NW14      30.05R
6HR MIN TEMP:  74; 6HR MAX TEMP:  81;

HOLLOMAN AFB   CLOUDY    85  49  28 NW6       29.99S
ALAMOGORDO     CLOUDY    84  48  28 N8        30.01S
T OR C         CLOUDY    76  56  49 CALM      30.07S
6HR MIN TEMP:  70; 6HR MAX TEMP:  76; 6HR PCP:  0.02;


$$
NMZ519>523-050100-
CENTRAL VALLEYS/CENTRAL HIGHLANDS

CITY           SKY/WX    TMP DP  RH WIND       PRES   REMARKS
ALBUQUERQUE    CLOUDY    69  57  65 SE3       30.13S
6HR MIN TEMP:  68; 6HR MAX TEMP:  78; 6HR PCP:  0.02;

DOUBLE EAGLE   CLOUDY    64  59  82 SE5       30.15F
MORIARTY ARPT  MOCLDY    67  54  62 NE5       30.19S
6HR MIN TEMP:  66; 6HR MAX TEMP:  78;

CLINES CORNERS CLOUDY    65  51  60 NW10      30.21F
6HR MIN TEMP:  63; 6HR MAX TEMP:  72; 6HR PCP: TRACE;

BELEN          CLOUDY    69  58  66 SE3       30.11S
6HR MIN TEMP:  68; 6HR MAX TEMP:  79;

SOCORRO        NOT AVBL

$$
NMZ524>526-539-540-050100-
SOUTHCENTRAL MOUNTAINS

CITY           SKY/WX    TMP DP  RH WIND       PRES   REMARKS
RUIDOSO        NOT AVBL

$$
NMZ527>531-050100-
NORTHEAST HIGHLANDS/NORTHEAST PLAINS

CITY           SKY/WX    TMP DP  RH WIND       PRES   REMARKS
LAS VEGAS      CLOUDY    67  49  52 SW15      30.21R
6HR MIN TEMP:  67; 6HR MAX TEMP:  77; 6HR PCP: TRACE;

RATON          CLOUDY    76  45  33 S16G28    30.09R
6HR MIN TEMP:  76; 6HR MAX TEMP:  82; 6HR PCP: TRACE;

CLAYTON        MOSUNNY   86  48  26 S17       30.02R
6HR MIN TEMP:  85; 6HR MAX TEMP:  92;


$$
NMZ532>537-050100-
EASTCENTRAL PLAINS

CITY           SKY/WX    TMP DP  RH WIND       PRES   REMARKS
TUCUMCARI      PTSUNNY   90  46  21 SW13      29.96S
6HR MIN TEMP:  85; 6HR MAX TEMP:  92;

CANNON AFB     PTSUNNY   85  52  32 W12       30.00S
6HR MIN TEMP:  84; 6HR MAX TEMP:  91; 6HR PCP: TRACE;

CLOVIS AIRPORT PTSUNNY   86  54  32 S12       30.01S

$$
NMZ028-029-538-050100-
SOUTHEAST PLAINS

CITY           SKY/WX    TMP DP  RH WIND       PRES   REMARKS
ROSWELL        CLOUDY    93  44  18 S14       29.94R
6HR MIN TEMP:  87; 6HR MAX TEMP:  98;

ARTESIA        CLOUDY    91  50  24 SE14      29.93S
CARLSBAD       PTSUNNY   95  49  20 SE13      29.90S
6HR MIN TEMP:  93; 6HR MAX TEMP: 100;

HOBBS          SUNNY     91  48  22 SE12      29.98R


$$


USA.gov is the U.S. government's official web portal to all federal, state and local government web resources and services.